Weather in Kingsbridge

United Kingdom     50°17′18″N   3°46′11″W
temp.,
°C
wind,
m/s
gust,
m/s
humid.,
%
clouds,
%
prec.,
mm/h
press.,
hPa
HPBL,
m
25 february, thu
thu2500:00+9wsw4693100 0.9 1022241
03:00+9wsw5990100 0.0 1023361
06:00+9nw589195 0.4 1025392
09:00+9nw4781100 0.0 1027508
12:00+10wnw467485 0.0 1029731
15:00+10wnw576938 0.0 1031774
18:00+8nw457519 0.0 1032433
21:00+6nw34800 0.0 1035237
26 february, fri
fri2600:00+5nw23830 0.0 1036118
03:00+5nnw22810 0.0 103682
06:00+5n22770 0.0 103660
09:00+6ne22710 0.0 1037103
12:00+8e22660 0.0 1039457
15:00+8s11690 0.0 1038347
18:00+6wnw12750 0.0 1038102
21:00+6nnw11720 0.0 103956
27 february, sat
sat2700:00+5nnw23732 0.0 103978
03:00+5nne227410 0.0 103963
06:00+5nne22765 0.0 103967
09:00+6nne23740 0.0 1040124
12:00+9ene33621 0.0 1040538
15:00+9ene23660 0.0 1039540
18:00+7ne22780 0.0 1038147
21:00+6nne45860 0.0 1038179
28 february, sun
sun2800:00+6nne34874 0.0 1037114
03:00+6ne458737 0.0 1036191
06:00+7ne579168 0.1 1035291
09:00+6ne679186 0.0 1035301
12:00+8ene788149 0.0 1034629
15:00+8ene68730 0.0 1033883
18:00+7ene57760 0.0 1032489
21:00+7ene57800 0.0 1032537
1 march, mon
mon100:00+6ene68860 0.0 1031506
03:00+6ene68873 0.0 1029446
06:00+5ene69871 0.0 1028380
09:00+6ene79840 0.0 1028567
12:00+7e688323 0.0 1028692
15:00+7e7880100 0.0 1026725
18:00+7e788195 0.0 1025701
21:00+7e698899 0.0 1026464